User: anonymous   Login
Location: Peebles
(55.6412°N, 3.1714°W)
Time: 11:50:56
(UTC+00:00)
Language:

Terra - Orbit

View from above orbital plane
View from above orbital plane
View from above satellite
View from above satellite

Ground track
Ground track

The orbit data is extracted from the following two-line orbital elements,

1 25994U 99068A   21342.15926140  .00000099  00000-0  31895-4 0  9999
2 25994  98.1603  53.2505 0001299 102.6793 287.5042 14.57140933168760
Epoch (UTC): 08 December 2021 03:49:20
Eccentricity: 0.0001299
inclination: 98.1603°
perigee height: 701 km
apogee height: 703 km
right ascension of ascending node: 53.2505°
argument of perigee: 102.6793°
revolutions per day: 14.57140933
mean anomaly at epoch: 287.5042°
orbit number at epoch: 16876

The dashed part of the orbit path shows where the satellite is in the earth's shadow,  

DLR